START_TIME,STEP,MOV.,M15,t_acc.,M20,t_acc.
1979-07-02 21:00:44.760 ,0,0,0.,24.0,0.,24.0
1979-07-02 21:01:08.760 ,0,1,0.,24.0,0.,24.0
1979-07-02 21:01:32.760 ,0,0,0.,24.0,0.,24.0
1979-07-02 21:01:56.760 ,1,1,0.,24.0,0.,24.0
1979-07-02 21:02:20.760 ,1,0,0.,24.0,0.,24.0
1979-07-02 21:02:44.760 ,2,1,0.,24.0,0.,24.0
1979-07-02 21:03:08.760 ,2,0,0.,24.0,0.,24.0
1979-07-02 21:03:32.760 ,3,1,0.,24.0,0.,24.0
1979-07-02 21:03:56.760 ,3,0,0.,24.0,0.,24.0
1979-07-02 21:04:20.760 ,4,1,0.,24.0,0.,24.0
1979-07-02 21:04:44.760 ,4,0,0.,24.0,0.,24.0
1979-07-02 21:05:08.760 ,5,1,0.,24.0,0.,24.0
1979-07-02 21:05:32.760 ,5,0,0.,24.0,0.,24.0
1979-07-02 21:05:56.760 ,6,1,0.,24.0,0.,24.0
1979-07-02 21:06:20.760 ,6,0,0.,24.0,0.,24.0
1979-07-02 21:06:44.760 ,7,0,0.,24.0,0.,24.0
1979-07-02 21:07:08.760 ,7,0,0.,24.0,0.,24.0
1979-07-02 21:07:32.760 ,3,1,0.,24.0,0.,24.0
1979-07-02 21:07:56.760 ,0,1,0.,24.0,0.,24.0
1979-07-02 21:08:20.760 ,4,1,0.,24.0,0.,24.0
1979-07-02 21:08:44.760 ,7,1,0.,24.0,0.,24.0
1979-07-02 21:09:08.760 ,3,1,0.,24.0,0.,24.0
1979-07-02 21:09:32.760 ,0,1,0.,24.0,0.,24.0
1979-07-02 21:09:56.760 ,4,1,0.,24.0,0.,24.0
1979-07-02 21:10:20.760 ,7,1,0.,24.0,0.,24.0
1979-07-02 21:10:44.760 ,3,1,0.,24.0,0.,24.0
1979-07-02 21:11:08.760 ,0,1,0.,24.0,0.,24.0
1979-07-02 21:11:32.760 ,4,1,0.,24.0,0.,24.0
1979-07-02 21:11:56.760 ,7,1,0.,24.0,0.,24.0
1979-07-02 21:12:20.760 ,3,1,0.,24.0,0.,24.0
1979-07-02 21:12:44.760 ,0,1,0.,24.0,0.,24.0
1979-07-02 21:13:08.760 ,4,1,0.,24.0,0.,24.0
1979-07-02 21:13:32.760 ,7,1,0.,24.0,0.,24.0
1979-07-02 21:13:56.760 ,3,1,0.,24.0,0.,24.0
1979-07-02 21:14:20.760 ,0,1,0.,24.0,0.,24.0
1979-07-02 21:14:44.760 ,4,1,0.,24.0,0.,24.0
1979-07-02 21:15:08.760 ,7,1,0.,24.0,0.,24.0
1979-07-02 21:15:32.760 ,3,1,0.,24.0,0.,24.0
1979-07-02 21:15:56.760 ,0,1,0.,24.0,0.,24.0
1979-07-02 21:16:20.760 ,4,1,0.,24.0,0.,24.0
1979-07-02 21:16:44.760 ,7,1,0.,24.0,0.,24.0
1979-07-02 21:17:08.760 ,3,1,0.,24.0,0.,24.0
1979-07-02 21:17:32.760 ,0,1,0.,24.0,0.,24.0
1979-07-02 21:17:56.760 ,0,0,0.,24.0,0.,24.0
1979-07-02 21:18:20.760 ,0,0,0.,24.0,0.,24.0
1979-07-02 21:18:44.760 ,5,1,0.,24.0,0.,24.0
1979-07-02 21:19:08.760 ,5,0,0.,24.0,0.,24.0
1979-07-02 21:19:32.760 ,4,1,0.,24.0,0.,24.0
1979-07-02 21:19:56.760 ,4,0,0.,24.0,0.,24.0
1979-07-02 21:20:20.760 ,3,1,0.,24.0,0.,24.0
1979-07-02 21:20:44.760 ,3,0,0.,24.0,0.,24.0
1979-07-02 21:21:08.760 ,2,1,0.,24.0,0.,24.0
1979-07-02 21:21:32.760 ,2,0,0.,24.0,0.,24.0
1979-07-02 21:21:56.760 ,1,1,0.,24.0,0.,24.0
1979-07-02 21:22:20.760 ,1,0,0.,24.0,0.,24.0
1979-07-02 21:22:44.760 ,0,1,0.,24.0,0.,24.0
1979-07-02 21:23:08.760 ,0,0,0.,24.0,0.,24.0
1979-07-02 21:23:32.760 ,0,1,0.,24.0,0.,24.0
1979-07-02 21:23:56.760 ,0,0,0.,24.0,0.,24.0
1979-07-02 21:24:20.760 ,1,1,0.,24.0,0.,24.0
1979-07-02 21:24:44.760 ,1,0,0.,24.0,0.,24.0
1979-07-02 21:25:08.760 ,2,1,0.,24.0,0.,24.0
1979-07-02 21:25:32.760 ,2,0,0.,24.0,0.,24.0
1979-07-02 21:25:56.760 ,3,1,0.,24.0,0.,24.0
1979-07-02 21:26:20.760 ,3,0,0.,24.0,0.,24.0
1979-07-02 21:26:44.760 ,4,1,0.,24.0,0.,24.0
1979-07-02 21:27:08.760 ,4,0,0.,24.0,0.,24.0
1979-07-02 21:27:32.760 ,5,1,0.,24.0,0.,24.0
1979-07-02 21:27:56.760 ,5,0,0.,24.0,0.,24.0
1979-07-02 21:28:20.760 ,6,1,0.,24.0,0.,24.0
1979-07-02 21:28:44.760 ,6,0,0.,24.0,0.,24.0
1979-07-02 21:29:08.760 ,7,1,0.,24.0,0.,24.0
1979-07-02 21:29:32.760 ,7,0,0.,24.0,0.,24.0
1979-07-02 21:29:56.760 ,7,1,0.,24.0,0.,24.0
1979-07-02 21:30:20.760 ,7,0,0.,24.0,0.,24.0
1979-07-02 21:30:44.760 ,6,1,0.,24.0,0.,24.0
1979-07-02 21:31:08.760 ,6,0,0.,24.0,0.,24.0
1979-07-02 21:31:32.760 ,5,1,0.,24.0,0.,24.0
1979-07-02 21:31:56.760 ,5,0,0.,24.0,0.,24.0
1979-07-02 21:32:20.760 ,4,1,0.,24.0,0.,24.0
1979-07-02 21:32:44.760 ,4,0,0.,24.0,0.,24.0
1979-07-02 21:33:08.760 ,3,1,0.,24.0,0.,24.0
1979-07-02 21:33:32.760 ,3,0,0.,24.0,0.,24.0
1979-07-02 21:33:56.760 ,2,1,0.,24.0,0.,24.0
1979-07-02 21:34:20.760 ,2,0,0.,24.0,0.,24.0
1979-07-02 21:34:44.760 ,1,1,0.,24.0,0.,24.0
1979-07-02 21:35:08.760 ,1,0,0.,24.0,0.,24.0
1979-07-02 21:35:32.760 ,0,1,0.,24.0,0.,24.0
1979-07-02 21:35:56.760 ,0,0,0.,24.0,0.,24.0
1979-07-02 21:36:20.760 ,0,1,0.,24.0,0.,24.0
1979-07-02 21:36:44.760 ,0,0,0.,24.0,0.,24.0
1979-07-02 21:37:08.760 ,1,1,0.,24.0,0.,24.0
1979-07-02 21:37:32.760 ,1,0,0.,24.0,0.,24.0
1979-07-02 21:37:56.760 ,2,1,0.,24.0,0.,24.0
1979-07-02 21:38:20.760 ,2,0,0.,24.0,0.,24.0
1979-07-02 21:38:44.760 ,3,1,0.,24.0,0.,24.0
1979-07-02 21:39:08.760 ,3,0,0.,24.0,0.,24.0
1979-07-02 21:39:32.760 ,4,1,0.,24.0,0.,24.0
1979-07-02 21:39:56.760 ,4,0,0.,24.0,0.,24.0
1979-07-02 21:40:20.760 ,5,1,0.,24.0,0.,24.0
1979-07-02 21:40:44.760 ,5,0,0.,24.0,0.,24.0
1979-07-02 21:41:08.760 ,6,1,0.,24.0,0.,24.0
1979-07-02 21:41:32.760 ,6,0,0.,24.0,0.,24.0
1979-07-02 21:41:56.760 ,7,1,0.,24.0,0.,24.0
1979-07-02 21:42:20.760 ,7,0,0.,24.0,0.,24.0
1979-07-02 21:42:44.760 ,7,1,0.,24.0,0.,24.0
1979-07-02 21:43:08.760 ,7,0,0.,24.0,0.,24.0
1979-07-02 21:43:32.760 ,6,1,0.,24.0,0.,24.0
1979-07-02 21:43:56.760 ,6,0,0.,24.0,0.,24.0
1979-07-02 21:44:20.760 ,5,1,0.,24.0,0.,24.0
1979-07-02 21:44:44.760 ,5,0,0.,24.0,0.,24.0
1979-07-02 21:45:08.760 ,4,1,0.,24.0,0.,24.0
1979-07-02 21:45:32.760 ,4,0,0.,24.0,0.,24.0
1979-07-02 21:45:56.760 ,3,1,0.,24.0,0.,24.0
1979-07-02 21:46:20.760 ,3,0,0.,24.0,0.,24.0
1979-07-02 21:46:44.760 ,2,1,0.,24.0,0.,24.0
1979-07-02 21:47:08.760 ,2,0,0.,24.0,0.,24.0
1979-07-02 21:47:32.760 ,1,1,0.,24.0,0.,24.0
1979-07-02 21:47:56.760 ,1,0,0.,24.0,0.,24.0
1979-07-02 21:48:20.760 ,0,1,0.,24.0,0.,24.0
1979-07-02 21:48:44.760 ,0,0,0.,24.0,0.,24.0
1979-07-02 21:49:08.760 ,0,1,0.,24.0,0.,24.0
1979-07-02 21:49:32.760 ,0,0,0.,24.0,0.,24.0
1979-07-02 21:49:56.760 ,1,1,0.,24.0,0.,24.0
1979-07-02 21:50:20.760 ,1,0,0.,24.0,0.,24.0
1979-07-02 21:50:44.760 ,2,1,0.,24.0,0.,24.0
1979-07-02 21:51:08.760 ,2,0,0.,24.0,0.,24.0
1979-07-02 21:51:32.760 ,3,1,0.,24.0,0.,24.0
1979-07-02 21:51:56.760 ,3,0,0.,24.0,0.,24.0
1979-07-02 21:52:20.760 ,4,1,0.,24.0,0.,24.0
1979-07-02 21:52:44.760 ,4,0,0.,24.0,0.,24.0
1979-07-02 21:53:08.760 ,5,1,0.,24.0,0.,24.0
1979-07-02 21:53:32.760 ,5,0,0.,24.0,0.,24.0
1979-07-02 21:53:56.760 ,6,1,0.,24.0,0.,24.0
1979-07-02 21:54:20.760 ,6,0,0.,24.0,0.,24.0
1979-07-02 21:54:44.760 ,7,0,0.,24.0,0.,24.0
1979-07-02 21:55:08.760 ,7,0,0.,24.0,0.,24.0
1979-07-02 21:55:32.760 ,3,1,0.,24.0,0.,24.0
1979-07-02 21:55:56.760 ,0,1,0.,24.0,0.,24.0
1979-07-02 21:56:20.760 ,4,1,0.,24.0,0.,24.0
1979-07-02 21:56:44.760 ,7,1,0.,24.0,0.,24.0
1979-07-02 21:57:08.760 ,3,1,0.,24.0,0.,24.0
1979-07-02 21:57:32.760 ,0,1,0.,24.0,0.,24.0
1979-07-02 21:57:56.760 ,4,1,0.,24.0,0.,24.0
1979-07-02 21:58:20.760 ,7,1,0.,24.0,0.,24.0
1979-07-02 21:58:44.760 ,3,1,0.,24.0,0.,24.0
1979-07-02 21:59:08.760 ,0,1,0.,24.0,0.,24.0
1979-07-02 21:59:32.760 ,4,1,0.,24.0,0.,24.0
1979-07-02 21:59:56.760 ,7,1,0.,24.0,0.,24.0
1979-07-02 22:00:20.760 ,3,1,0.,24.0,0.,24.0
1979-07-02 22:00:44.760 ,0,1,0.,24.0,0.,24.0
1979-07-02 22:01:08.760 ,4,1,0.,24.0,0.,24.0
1979-07-02 22:01:32.760 ,7,1,0.,24.0,0.,24.0
1979-07-02 22:01:56.760 ,3,1,0.,24.0,0.,24.0
1979-07-02 22:02:20.760 ,0,1,0.,24.0,0.,24.0
1979-07-02 22:02:44.760 ,4,1,0.,24.0,0.,24.0
1979-07-02 22:03:08.760 ,7,1,0.,24.0,0.,24.0
1979-07-02 22:03:32.760 ,3,1,0.,24.0,0.,24.0
1979-07-02 22:03:56.760 ,0,1,0.,24.0,0.,24.0
1979-07-02 22:04:20.760 ,4,1,0.,24.0,0.,24.0
1979-07-02 22:04:44.760 ,7,1,0.,24.0,0.,24.0
1979-07-02 22:05:08.760 ,3,1,0.,24.0,0.,24.0
1979-07-02 22:05:32.760 ,0,1,0.,24.0,0.,24.0
1979-07-02 22:05:56.760 ,0,0,0.,24.0,0.,24.0
1979-07-02 22:06:20.760 ,0,0,0.,24.0,0.,24.0
1979-07-02 22:06:44.760 ,5,1,0.,24.0,0.,24.0
1979-07-02 22:07:08.760 ,5,0,0.,24.0,0.,24.0
1979-07-02 22:07:32.760 ,4,1,0.,24.0,0.,24.0
1979-07-02 22:07:56.760 ,4,0,0.,24.0,0.,24.0
1979-07-02 22:09:08.760 ,0,0,0.,24.0,0.,24.0
1979-07-02 22:09:32.760 ,0,0,0.,24.0,0.,24.0
1979-07-02 22:09:56.760 ,1,1,0.,24.0,0.,24.0
1979-07-02 22:10:20.760 ,1,0,0.,24.0,0.,24.0
1979-07-02 22:10:44.760 ,0,1,0.,24.0,0.,24.0
1979-07-02 22:11:08.760 ,0,0,0.,24.0,0.,24.0
1979-07-02 22:11:32.760 ,0,1,0.,24.0,0.,24.0
1979-07-02 22:11:56.760 ,0,0,0.,24.0,0.,24.0
1979-07-02 22:12:20.760 ,1,1,0.,24.0,0.,24.0
1979-07-02 22:12:44.760 ,1,0,0.,24.0,0.,24.0
1979-07-02 22:13:08.760 ,2,1,0.,24.0,0.,24.0
1979-07-02 22:13:32.760 ,2,0,0.,24.0,0.,24.0
1979-07-02 22:13:56.760 ,3,1,0.,24.0,0.,24.0
1979-07-02 22:14:20.760 ,3,0,0.,24.0,0.,24.0
1979-07-02 22:14:44.760 ,4,1,0.,24.0,0.,24.0
1979-07-02 22:15:08.760 ,4,0,0.,24.0,0.,24.0
1979-07-02 22:15:32.760 ,5,1,0.,24.0,0.,24.0
1979-07-02 22:15:56.760 ,5,0,0.,24.0,0.,24.0
1979-07-02 22:16:20.760 ,6,1,0.,24.0,0.,24.0
1979-07-02 22:16:44.760 ,6,0,0.,24.0,0.,24.0
1979-07-02 22:17:08.760 ,7,1,0.,24.0,0.,24.0
1979-07-02 22:17:32.760 ,7,0,0.,24.0,0.,24.0
1979-07-02 22:17:56.760 ,7,1,0.,24.0,0.,24.0
1979-07-02 22:18:20.760 ,7,0,0.,24.0,0.,24.0
1979-07-02 22:18:44.760 ,6,1,0.,24.0,0.,24.0
1979-07-02 22:19:08.760 ,6,0,0.,24.0,0.,24.0
1979-07-02 22:19:32.760 ,5,1,0.,24.0,0.,24.0
1979-07-02 22:19:56.760 ,5,0,0.,24.0,0.,24.0
1979-07-02 22:20:20.760 ,4,1,0.,24.0,0.,24.0
1979-07-02 22:20:44.760 ,4,0,0.,24.0,0.,24.0
1979-07-02 22:21:08.760 ,3,1,0.,24.0,0.,24.0
1979-07-02 22:21:32.760 ,3,0,0.,24.0,0.,24.0
1979-07-02 22:21:56.760 ,2,1,0.,24.0,0.,24.0
1979-07-02 22:22:20.760 ,2,0,0.,24.0,0.,24.0
1979-07-02 22:22:44.760 ,1,1,0.,24.0,0.,24.0
1979-07-02 22:23:08.760 ,1,0,0.,24.0,0.,24.0
1979-07-02 22:23:32.760 ,0,1,0.,24.0,0.,24.0
1979-07-02 22:23:56.760 ,0,0,0.,24.0,0.,24.0
1979-07-02 22:24:20.760 ,0,1,0.,24.0,0.,24.0
1979-07-02 22:24:44.760 ,0,0,0.,24.0,0.,24.0
1979-07-02 22:25:08.760 ,1,1,0.,24.0,0.,24.0
1979-07-02 22:25:32.760 ,1,0,0.,24.0,0.,24.0
1979-07-02 22:26:44.760 ,0,0,0.,24.0,0.,24.0
1979-07-02 22:27:08.760 ,0,0,0.,24.0,0.,24.0
1979-07-02 22:27:32.760 ,4,1,0.,24.0,0.,24.0
1979-07-02 22:27:56.760 ,4,0,0.,24.0,0.,24.0
1979-07-02 22:28:20.760 ,5,1,0.,24.0,0.,24.0
1979-07-02 22:28:44.760 ,5,0,0.,24.0,0.,24.0
1979-07-02 22:29:08.760 ,6,1,0.,24.0,0.,24.0
1979-07-02 22:29:32.760 ,6,0,0.,24.0,0.,24.0
1979-07-02 22:29:56.760 ,7,1,0.,24.0,0.,24.0
1979-07-02 22:30:20.760 ,7,0,0.,24.0,0.,24.0
1979-07-02 22:30:44.760 ,7,1,0.,24.0,0.,24.0
1979-07-02 22:31:08.760 ,7,0,0.,24.0,0.,24.0
1979-07-02 22:31:32.760 ,6,1,0.,24.0,0.,24.0
1979-07-02 22:31:56.760 ,6,0,0.,24.0,0.,24.0
1979-07-02 22:32:20.760 ,5,1,0.,24.0,0.,24.0
1979-07-02 22:32:44.760 ,5,0,0.,24.0,0.,24.0
1979-07-02 22:33:08.760 ,4,1,0.,24.0,0.,24.0
1979-07-02 22:33:32.760 ,4,0,0.,24.0,0.,24.0
1979-07-02 22:33:56.760 ,3,1,0.,24.0,0.,24.0
1979-07-02 22:34:20.760 ,3,0,0.,24.0,0.,24.0
1979-07-02 22:34:44.760 ,2,1,0.,24.0,0.,24.0
1979-07-02 22:35:08.760 ,2,0,0.,24.0,0.,24.0
1979-07-02 22:35:32.760 ,1,1,0.,24.0,0.,24.0
1979-07-02 22:35:56.760 ,1,0,0.,24.0,0.,24.0
1979-07-02 22:36:20.760 ,0,1,0.,24.0,0.,24.0
1979-07-02 22:36:44.760 ,0,0,0.,24.0,0.,24.0
1979-07-02 22:37:08.760 ,0,1,0.,24.0,0.,24.0
1979-07-02 22:37:32.760 ,0,0,0.,24.0,0.,24.0
1979-07-02 22:37:56.760 ,1,1,0.,24.0,0.,24.0
1979-07-02 22:38:20.760 ,1,0,0.,24.0,0.,24.0
1979-07-02 22:38:44.760 ,2,1,0.,24.0,0.,24.0
1979-07-02 22:39:08.760 ,2,0,0.,24.0,0.,24.0
1979-07-02 22:39:32.760 ,3,1,0.,24.0,0.,24.0
1979-07-02 22:39:56.760 ,3,0,0.,24.0,0.,24.0
1979-07-02 22:40:20.760 ,4,1,0.,24.0,0.,24.0
1979-07-02 22:40:44.760 ,4,0,0.,24.0,0.,24.0
1979-07-02 22:41:08.760 ,5,1,0.,24.0,0.,24.0
1979-07-02 22:41:32.760 ,5,0,0.,24.0,0.,24.0
1979-07-02 22:41:56.760 ,6,1,0.,24.0,0.,24.0
1979-07-02 22:42:20.760 ,6,0,0.,24.0,0.,24.0
1979-07-02 22:42:44.760 ,7,0,0.,24.0,0.,24.0
1979-07-02 22:43:08.760 ,7,0,0.,24.0,0.,24.0
1979-07-02 22:43:32.760 ,3,1,0.,24.0,0.,24.0
1979-07-02 22:43:56.760 ,0,1,0.,24.0,0.,24.0
1979-07-02 22:44:20.760 ,4,1,0.,24.0,0.,24.0
1979-07-02 22:44:44.760 ,7,1,0.,24.0,0.,24.0
1979-07-02 22:45:08.760 ,3,1,0.,24.0,0.,24.0
1979-07-02 22:45:32.760 ,0,1,0.,24.0,0.,24.0
1979-07-02 22:45:56.760 ,4,1,0.,24.0,0.,24.0
1979-07-02 22:46:20.760 ,7,1,0.,24.0,0.,24.0
1979-07-02 22:46:44.760 ,3,1,0.,24.0,0.,24.0
1979-07-02 22:47:08.760 ,0,1,0.,24.0,0.,24.0
1979-07-02 22:47:32.760 ,4,1,0.,24.0,0.,24.0
1979-07-02 22:47:56.760 ,7,1,0.,24.0,0.,24.0
1979-07-02 22:48:20.760 ,3,1,0.,24.0,0.,24.0
1979-07-02 22:48:44.760 ,0,1,0.,24.0,0.,24.0
1979-07-02 22:49:08.760 ,4,1,0.,24.0,0.,24.0
1979-07-02 22:49:32.760 ,7,1,0.,24.0,0.,24.0
1979-07-02 22:49:56.760 ,3,1,0.,24.0,0.,24.0
1979-07-02 22:50:20.760 ,0,1,0.,24.0,0.,24.0
1979-07-02 22:50:44.760 ,4,1,0.,24.0,0.,24.0
1979-07-02 22:51:08.760 ,7,1,0.,24.0,0.,24.0
1979-07-02 22:51:32.760 ,3,1,0.,24.0,0.,24.0
1979-07-02 22:51:56.760 ,0,1,0.,24.0,0.,24.0
1979-07-02 22:52:20.760 ,4,1,0.,24.0,0.,24.0
1979-07-02 22:52:44.760 ,7,1,0.,24.0,0.,24.0
1979-07-02 22:53:08.760 ,3,1,0.,24.0,0.,24.0
1979-07-02 22:53:32.760 ,0,1,0.,24.0,0.,24.0
1979-07-02 22:53:56.760 ,0,0,0.,24.0,0.,24.0
1979-07-02 22:54:20.760 ,0,0,0.,24.0,0.,24.0
1979-07-02 22:54:44.760 ,5,1,0.,24.0,0.,24.0
1979-07-02 22:55:08.760 ,5,0,0.,24.0,0.,24.0
1979-07-02 22:55:32.760 ,4,1,0.,24.0,0.,24.0
1979-07-02 22:55:56.760 ,4,0,0.,24.0,0.,24.0
1979-07-02 22:56:20.760 ,3,1,0.,24.0,0.,24.0
1979-07-02 22:56:44.760 ,3,0,0.,24.0,0.,24.0
1979-07-02 22:57:08.760 ,2,1,0.,24.0,0.,24.0
1979-07-02 22:57:32.760 ,2,0,0.,24.0,0.,24.0
1979-07-02 22:57:56.760 ,1,1,0.,24.0,0.,24.0
1979-07-02 22:58:20.760 ,1,0,0.,24.0,0.,24.0
1979-07-02 22:58:44.760 ,0,1,0.,24.0,0.,24.0
1979-07-02 22:59:08.760 ,0,0,0.,24.0,0.,24.0
1979-07-02 22:59:32.760 ,0,1,0.,24.0,0.,24.0
1979-07-02 22:59:56.760 ,0,0,0.,24.0,0.,24.0
1979-07-02 23:00:20.760 ,1,1,0.,24.0,0.,24.0
1979-07-02 23:00:44.760 ,1,0,0.,24.0,0.,24.0
1979-07-02 23:01:08.760 ,2,1,0.,24.0,0.,24.0
1979-07-02 23:01:32.760 ,2,0,0.,24.0,0.,24.0
1979-07-02 23:01:56.760 ,3,1,0.,24.0,0.,24.0
1979-07-02 23:02:20.760 ,3,0,0.,24.0,0.,24.0
1979-07-02 23:02:44.760 ,4,1,0.,24.0,0.,24.0
1979-07-02 23:03:08.760 ,4,0,0.,24.0,0.,24.0
1979-07-02 23:03:32.760 ,5,1,0.,24.0,0.,24.0
1979-07-02 23:03:56.760 ,5,0,0.,24.0,0.,24.0
1979-07-02 23:04:20.760 ,6,1,1.,24.0,0.,24.0
1979-07-02 23:04:44.760 ,6,0,0.,24.0,0.,24.0
1979-07-02 23:05:08.760 ,7,1,0.,24.0,0.,24.0
1979-07-02 23:05:32.760 ,7,0,0.,24.0,0.,24.0
1979-07-02 23:05:56.760 ,7,1,0.,24.0,0.,24.0
1979-07-02 23:06:20.760 ,7,0,0.,24.0,0.,24.0
1979-07-02 23:06:44.760 ,6,1,0.,24.0,0.,24.0
1979-07-02 23:07:08.760 ,6,0,0.,24.0,0.,24.0
1979-07-02 23:07:32.760 ,5,1,0.,24.0,0.,24.0
1979-07-02 23:07:56.760 ,5,0,0.,24.0,0.,24.0
1979-07-02 23:08:20.760 ,4,1,0.,24.0,0.,24.0
1979-07-02 23:08:44.760 ,4,0,0.,24.0,0.,24.0
1979-07-02 23:09:08.760 ,3,1,0.,24.0,0.,24.0
1979-07-02 23:09:32.760 ,3,0,0.,24.0,0.,24.0
1979-07-02 23:09:56.760 ,0,0,0.,24.0,0.,24.0
1979-07-02 23:10:20.760 ,0,0,0.,24.0,0.,24.0
1979-07-02 23:10:44.760 ,1,1,0.,24.0,0.,24.0
1979-07-02 23:11:08.760 ,1,0,0.,24.0,0.,24.0
1979-07-02 23:11:32.760 ,0,1,0.,24.0,0.,24.0
1979-07-02 23:11:56.760 ,0,0,0.,24.0,0.,24.0
1979-07-02 23:12:20.760 ,0,1,0.,24.0,0.,24.0
1979-07-02 23:12:44.760 ,0,0,0.,24.0,0.,24.0
1979-07-02 23:13:08.760 ,1,1,0.,24.0,0.,24.0
1979-07-02 23:13:32.760 ,1,0,0.,24.0,0.,24.0
1979-07-02 23:13:56.760 ,2,1,0.,24.0,0.,24.0
1979-07-02 23:14:20.760 ,2,0,0.,24.0,0.,24.0
1979-07-02 23:14:44.760 ,3,1,0.,24.0,0.,24.0
1979-07-02 23:15:08.760 ,3,0,0.,24.0,0.,24.0
1979-07-02 23:15:32.760 ,4,1,0.,24.0,0.,24.0
1979-07-02 23:15:56.760 ,4,0,0.,24.0,0.,24.0
1979-07-02 23:16:20.760 ,5,1,0.,24.0,0.,24.0
1979-07-02 23:16:44.760 ,5,0,0.,24.0,0.,24.0
1979-07-02 23:17:08.760 ,6,1,0.,24.0,0.,24.0
1979-07-02 23:17:32.760 ,6,0,0.,24.0,0.,24.0
1979-07-02 23:17:56.760 ,7,1,0.,24.0,0.,24.0
1979-07-02 23:18:20.760 ,7,0,0.,24.0,0.,24.0
1979-07-02 23:18:44.760 ,7,1,0.,24.0,0.,24.0
1979-07-02 23:19:08.760 ,7,0,0.,24.0,0.,24.0
1979-07-02 23:19:32.760 ,6,1,0.,24.0,0.,24.0
1979-07-02 23:19:56.760 ,6,0,0.,24.0,0.,24.0
1979-07-02 23:20:20.760 ,5,1,0.,24.0,0.,24.0
1979-07-02 23:20:44.760 ,5,0,0.,24.0,0.,24.0
1979-07-02 23:21:08.760 ,4,1,0.,24.0,0.,24.0
1979-07-02 23:21:32.760 ,4,0,0.,24.0,0.,24.0
1979-07-02 23:21:56.760 ,3,1,0.,24.0,0.,24.0
1979-07-02 23:22:20.760 ,3,0,0.,24.0,0.,24.0
1979-07-02 23:22:44.760 ,2,1,0.,24.0,0.,24.0
1979-07-02 23:23:08.760 ,2,0,0.,24.0,0.,24.0
1979-07-02 23:23:32.760 ,1,1,0.,24.0,0.,24.0
1979-07-02 23:23:56.760 ,1,0,0.,24.0,0.,24.0
1979-07-02 23:24:20.760 ,0,1,0.,24.0,0.,24.0
1979-07-02 23:24:44.760 ,0,0,1.,24.0,0.,24.0
1979-07-02 23:25:08.760 ,0,1,0.,24.0,0.,24.0
1979-07-02 23:25:32.760 ,0,0,0.,24.0,0.,24.0
1979-07-02 23:25:56.760 ,1,1,0.,24.0,0.,24.0
1979-07-02 23:26:20.760 ,1,0,0.,24.0,0.,24.0
1979-07-02 23:26:44.760 ,2,1,0.,24.0,0.,24.0
1979-07-02 23:27:08.760 ,2,0,0.,24.0,0.,24.0
1979-07-02 23:27:32.760 ,3,1,0.,24.0,0.,24.0
1979-07-02 23:27:56.760 ,3,0,0.,24.0,0.,24.0
1979-07-02 23:28:20.760 ,4,1,0.,24.0,0.,24.0
1979-07-02 23:28:44.760 ,4,0,0.,24.0,0.,24.0
1979-07-02 23:29:08.760 ,5,1,0.,24.0,0.,24.0
1979-07-02 23:29:32.760 ,5,0,0.,24.0,0.,24.0
1979-07-02 23:29:56.760 ,6,1,0.,24.0,0.,24.0
1979-07-02 23:30:20.760 ,6,0,0.,24.0,0.,24.0
1979-07-02 23:30:44.760 ,7,0,0.,24.0,0.,24.0
1979-07-02 23:31:08.760 ,7,0,0.,24.0,0.,24.0
1979-07-02 23:31:32.760 ,3,1,0.,24.0,0.,24.0
1979-07-02 23:31:56.760 ,0,1,0.,24.0,0.,24.0
1979-07-02 23:32:20.760 ,4,1,0.,24.0,0.,24.0
1979-07-02 23:32:44.760 ,7,1,0.,24.0,0.,24.0
1979-07-02 23:33:08.760 ,3,1,0.,24.0,0.,24.0
1979-07-02 23:33:32.760 ,0,1,0.,24.0,0.,24.0
1979-07-02 23:33:56.760 ,4,1,0.,24.0,0.,24.0
1979-07-02 23:34:20.760 ,7,1,0.,24.0,0.,24.0
1979-07-02 23:34:44.760 ,3,1,0.,24.0,0.,24.0
1979-07-02 23:35:08.760 ,0,1,0.,24.0,0.,24.0
1979-07-02 23:35:32.760 ,4,1,0.,24.0,0.,24.0
1979-07-02 23:35:56.760 ,7,1,0.,24.0,0.,24.0
1979-07-02 23:36:20.760 ,3,1,0.,24.0,0.,24.0
1979-07-02 23:36:44.760 ,0,1,0.,24.0,0.,24.0
1979-07-02 23:37:08.760 ,4,1,0.,24.0,0.,24.0
1979-07-02 23:37:32.760 ,7,1,0.,24.0,0.,24.0
1979-07-02 23:37:56.760 ,3,1,0.,24.0,0.,24.0
1979-07-02 23:38:20.760 ,0,1,0.,24.0,0.,24.0
1979-07-02 23:38:44.760 ,4,1,0.,24.0,0.,24.0
1979-07-02 23:39:08.760 ,7,1,0.,24.0,0.,24.0
1979-07-02 23:39:32.760 ,3,1,0.,24.0,0.,24.0
1979-07-02 23:39:56.760 ,0,1,0.,24.0,0.,24.0
1979-07-02 23:40:20.760 ,4,1,0.,24.0,0.,24.0
1979-07-02 23:40:44.760 ,7,1,0.,24.0,0.,24.0
1979-07-02 23:41:08.760 ,3,1,0.,24.0,0.,24.0
1979-07-02 23:41:32.760 ,0,1,0.,24.0,0.,24.0
1979-07-02 23:41:56.760 ,0,0,0.,24.0,0.,24.0
1979-07-02 23:42:20.760 ,0,0,0.,24.0,0.,24.0
1979-07-02 23:42:44.760 ,5,1,0.,24.0,0.,24.0
1979-07-02 23:43:08.760 ,5,0,0.,24.0,0.,24.0
1979-07-02 23:43:32.760 ,4,1,0.,24.0,0.,24.0
1979-07-02 23:43:56.760 ,4,0,0.,24.0,0.,24.0
1979-07-02 23:44:20.760 ,3,1,0.,24.0,0.,24.0
1979-07-02 23:44:44.760 ,3,0,0.,24.0,0.,24.0
1979-07-02 23:45:08.760 ,2,1,0.,24.0,0.,24.0
1979-07-02 23:45:32.760 ,2,0,0.,24.0,0.,24.0
1979-07-02 23:45:56.760 ,1,1,0.,24.0,0.,24.0
1979-07-02 23:46:20.760 ,1,0,0.,24.0,0.,24.0
1979-07-02 23:46:44.760 ,0,1,0.,24.0,0.,24.0
1979-07-02 23:47:08.760 ,0,0,0.,24.0,0.,24.0
1979-07-02 23:47:32.760 ,0,1,0.,24.0,0.,24.0
1979-07-02 23:47:56.760 ,0,0,0.,24.0,0.,24.0
1979-07-02 23:48:20.760 ,1,1,1.,24.0,0.,24.0
1979-07-02 23:48:44.760 ,1,0,0.,24.0,0.,24.0
1979-07-02 23:49:08.760 ,2,1,0.,24.0,0.,24.0
1979-07-02 23:49:32.760 ,2,0,0.,24.0,0.,24.0
1979-07-02 23:49:56.760 ,3,1,0.,24.0,0.,24.0
1979-07-02 23:50:20.760 ,3,0,0.,24.0,0.,24.0
1979-07-02 23:50:44.750 ,4,1,0.,24.0,0.,24.0
1979-07-02 23:51:08.750 ,4,0,0.,24.0,0.,24.0
1979-07-02 23:51:32.750 ,5,1,0.,24.0,0.,24.0
1979-07-02 23:51:56.750 ,5,0,0.,24.0,0.,24.0
1979-07-02 23:52:20.750 ,6,1,0.,24.0,0.,24.0
1979-07-02 23:52:44.750 ,6,0,0.,24.0,0.,24.0
1979-07-02 23:53:08.750 ,7,1,0.,24.0,0.,24.0
1979-07-02 23:53:32.750 ,7,0,0.,24.0,0.,24.0
1979-07-02 23:53:56.750 ,7,1,0.,24.0,0.,24.0
1979-07-02 23:54:20.750 ,7,0,0.,24.0,0.,24.0
1979-07-02 23:54:44.750 ,6,1,0.,24.0,0.,24.0
1979-07-02 23:55:08.750 ,6,0,0.,24.0,0.,24.0
1979-07-02 23:55:32.750 ,5,1,0.,24.0,0.,24.0
1979-07-02 23:55:56.750 ,0,0,0.,24.0,0.,24.0
1979-07-02 23:56:31.550 ,0,0,0.,24.0,0.,24.0
1979-07-02 23:56:44.750 ,0,0,0.,24.0,0.,24.0
1979-07-02 23:57:08.750 ,3,1,0.,24.0,0.,24.0
1979-07-02 23:57:32.750 ,3,0,0.,24.0,0.,24.0
1979-07-02 23:57:56.750 ,2,1,0.,24.0,0.,24.0
1979-07-02 23:58:20.750 ,2,0,0.,24.0,0.,24.0
1979-07-02 23:58:44.750 ,1,1,0.,24.0,0.,24.0
1979-07-02 23:59:08.750 ,1,0,0.,24.0,0.,24.0
1979-07-02 23:59:32.750 ,0,1,0.,24.0,0.,24.0
1979-07-02 23:59:56.750 ,0,0,0.,24.0,0.,24.0
1979-07-03 00:00:20.750 ,0,1,1.,24.0,0.,24.0
